Location: Spring Creek
(38.2870°N, 100.2160°W)
Time: 03:49:59
(UTC+00:00)

Cosmos 2219 - Pass Details

Date: 08 May 2021
Orbit: 832 x 861 km, 71.1° (Epoch: 22 June)

Event Time Altitude Azimuth Distance (km) Brightness Sun altitude
Rises 10:53:08 0° 322° (NW) 3,420 6.3 -8.4°
Reaches altitude 10° 10:56:08 10° 307° (NW) 2,485 5.4 -7.9°
Maximum altitude 11:00:17 21° 260° (W) 1,822 4.4 -7.2°
Drops below altitude 10° 11:04:27 10° 212° (SSW) 2,484 5.1 -6.4°
Sets 11:07:28 0° 197° (SSW) 3,419 5.9 -5.9°
